Location: Castaignos
(43.5863°N, 0.6508°W)
Time: 01:28:09
(UTC+00:00)

Daily predictions for brighter satellites

Satellite Brightness Start Highest point End
(mag) Time Altitude Azimuth Time Altitude Azimuth Time Altitude Azimuth
USA 267 3.9 03:15:40 10° NE 03:20:18 50° NE 03:20:18 50° NE
Cosmos 2333 Rocket 4.2 03:39:30 18° N 03:39:30 18° N 03:41:01 10° NNE
COSMOS 2455 4.3 03:45:06 28° N 03:45:06 28° N 03:48:00 10° NNE
ACS3 Solar Sail 3.0 03:44:58 10° N 03:47:53 31° N 03:47:53 31° N
Cosmos 2360 Rocket 3.8 03:59:09 23° N 03:59:09 23° N 04:01:22 10° NNE
Cosmos 2322 Rocket 4.0 03:59:31 21° N 03:59:31 21° N 04:01:31 10° NNE
USA 234 3.3 03:51:23 10° ESE 03:57:55 73° NE 03:58:53 63° NNW
Gbstr 26 Del rocket 4.1 03:59:16 49° E 03:59:16 49° E 04:03:42 10° ENE
SL-16 R/B 4.4 04:06:03 14° N 04:06:03 14° N 04:06:59 10° N
Cosmos 1943 Rocket 3.9 04:06:17 12° N 04:10:37 29° NE 04:15:22 10° ESE
ARGOS 3.1 04:11:20 10° NNE 04:16:17 74° N 04:16:17 74° N
PAYLOAD A 4.2 04:12:11 10° NNE 04:17:37 74° ESE 04:20:29 28° S
Cosmos 1140 Rocket 4.4 04:15:56 21° N 04:19:06 46° ENE 04:23:59 10° SE
Cosmos 1809 Rocket 4.3 04:15:57 10° S 04:22:04 87° E 04:28:11 10° N
CZ-2C R/B 2.5 04:17:04 10° NNE 04:21:33 71° N 04:21:33 71° N
ADEOS Rocket 3.9 04:21:04 10° N 04:25:40 37° NW 04:25:40 37° NW
NOSS 3-1 (C) 2.7 04:27:25 85° SSW 04:27:32 90° SSE 04:33:02 10° NE
Cosmos 2100 Rocket 4.0 04:27:17 10° N 04:33:27 79° E 04:39:37 10° S
Cosmos 2219 Rocket 3.0 04:36:50 35° NNW 04:36:50 35° NNW 04:40:55 10° NNE
NOSS 0 Rocket 4.4 04:35:55 10° S 04:41:55 60° ESE 04:47:59 10° NNE
IRS-1D 4.4 04:37:18 10° NNE 04:42:07 48° E 04:46:52 10° S
COSMOS 2428 2.6 04:41:30 21° SSW 04:45:23 85° WNW 04:51:06 10° NNE
USA 59 Rocket 1.0 04:50:47 23° NNE 04:50:47 23° NNE 04:52:06 10° NNE
Cosmos 2322 3.6 04:50:01 30° SW 04:52:51 65° WNW 04:58:31 10° NNE
SL-08 RB Rocket 3.8 04:49:14 10° N 04:53:29 50° WNW 04:53:29 50° WNW
Cosmos 1459 Rocket 3.9 04:48:18 10° N 04:54:42 80° W 05:01:01 10° S
COSMO-SKYMED 1 3.9 04:53:54 10° SE 04:57:42 37° ENE 05:01:31 10° N
Meteor 2-21 4.3 04:51:40 10° SSW 04:57:43 68° W 05:03:47 10° N
FengYun 1-2 T 4.2 04:53:09 10° NNE 04:58:45 90° ESE 05:04:21 10° SSW
SKYMED 2 4.2 04:54:42 10° SSE 04:58:56 56° ENE 05:03:12 10° N
Cosmos 1727 Rocket 4.1 04:54:23 10° SSW 05:00:18 47° WNW 05:06:18 10° N
Cosmos 407 Rocket 4.1 04:56:04 10° NNW 05:01:05 55° ENE 05:06:05 10° SE
Cosmos 2228 Rocket 4.3 05:03:28 24° NNW 05:03:28 24° NNW 05:05:39 10° N
Cosmos 1023 Rocket 4.3 04:58:45 20° NNW 05:02:14 70° WSW 05:07:14 10° S
USA 267 3.9 04:58:55 10° NE 05:04:51 39° NNW 05:07:39 27° WNW
Cosmos 1725 Rocket 4.0 04:58:46 10° N 05:05:08 85° E 05:11:27 10° S
Cosmos 1980 4.1 04:59:37 10° S 05:05:11 64° ESE 05:10:47 10° NNE
NOSS 3-1 (A) 2.9 05:07:07 10° SSW 05:11:41 81° SE 05:17:11 10° NE
Cosmos 1802 Rocket 3.9 05:06:39 10° N 05:13:02 77° W 05:19:17 10° S
Cosmos 1269 Rocket 4.1 05:09:27 18° NW 05:13:15 52° WSW 05:18:22 10° S
Cosmos 1328 3.7 05:11:11 10° SSW 05:14:42 49° W 05:18:16 10° N
Cosmos 1703 Rocket 3.4 05:11:45 10° SSW 05:16:02 64° W 05:20:24 10° N
Cosmos 921 Rocket 4.1 05:16:56 26° WSW 05:16:56 26° WSW 05:19:54 10° SSW
Cosmos 2233 Rocket 4.3 05:10:01 10° N 05:16:20 71° E 05:22:35 10° SSE
Cosmos 2278 Rocket 2.2 05:12:24 10° NNW 05:18:05 88° ENE 05:23:45 10° SSE
NOSS 2-1 (E) 3.5 05:18:52 35° NW 05:18:56 35° NW 05:21:52 10° NNE
Meteor 2-16 Rocket 4.3 05:14:14 10° SSW 05:20:19 75° W 05:26:27 10° N
CZ-3 R/B 3.8 05:10:48 10° SW 05:20:23 22° S 05:25:09 10° SE
Cosmos 2333 Rocket 4.2 05:21:32 10° NNW 05:21:32 10° NNW 05:22:20 10° NNW
Cosmos 2237 Rocket 2.3 05:15:47 10° SSW 05:21:26 79° ESE 05:27:07 10° NNE
Cosmos 1939 Rocket 3.4 05:19:25 10° N 05:22:52 32° WNW 05:23:41 29° W
Cosmos 2173 Rocket 4.2 05:18:11 10° NNW 05:23:54 44° W 05:29:36 10° SSW
Cosmos 2292 Rocket 3.6 05:22:27 10° SSW 05:26:29 76° W 05:31:45 10° N
SL-08 R/B 4.4 05:21:06 10° N 05:27:14 82° W 05:33:24 10° S
BlueWalker 3 1.8 05:27:40 29° WNW 05:29:18 60° SW 05:32:50 10° SE
USA 276 2.1 05:29:39 38° WSW 05:30:11 45° SSW 05:32:51 10° SE
Meteor 1-24 Rocket 3.9 05:25:29 10° SSW 05:31:07 51° WNW 05:36:35 10° N
Helios 1A Rocket 2.4 05:28:44 10° S 05:32:05 60° WSW 05:35:27 10° NNW
ACS3 Solar Sail 3.4 05:30:14 10° NNW 05:32:02 13° NW 05:32:02 13° NW
Cosmos 2369 Rocket 4.4 05:31:11 10° N 05:35:23 21° NE 05:39:32 10° E
CZ-4 R/B 3.9 05:32:41 10° N 05:37:29 56° WNW 05:42:10 10° SSW
Cosmos 1782 Rocket 3.5 05:35:02 10° NNW 05:39:26 71° W 05:43:45 10° S
USA 234 4.0 05:35:21 10° SSE 05:41:13 35° SW 05:46:14 14° WNW
Cosmos 2123 Rocket 4.3 05:35:57 10° SSW 05:41:49 43° WNW 05:47:42 10° N
Meteor 2-5 Rocket 4.0 05:36:36 10° SSW 05:42:17 47° WNW 05:47:56 10° N
Cosmos 1420 Rocket 4.1 05:38:21 10° SSW 05:43:37 85° ESE 05:48:56 10° NNE
Gbstr 26 Del rocket 4.0 05:41:19 17° W 05:45:01 47° NNW 05:50:56 10° ENE
NOAA 12 4.2 05:41:35 10° N 05:46:47 55° WNW 05:51:58 10° SSW
Cosmos 44 Rocket 4.1 05:43:41 14° NW 05:47:32 35° WSW 05:52:10 10° S
CENTAUR R/B 4.5 05:41:20 10° NNW 05:48:37 35° NE 05:56:53 10° E
Cosmos 1943 Rocket 2.5 05:49:16 10° NW 05:54:31 45° WSW 05:59:42 10° S
Cosmos 2016 Rocket 4.4 05:49:14 10° NNW 05:55:13 44° W 06:01:09 10° SSW
Cosmos 1812 3.5 05:55:32 10° N 05:58:18 38° ENE 06:01:04 10° SSE
CZ-2C R/B 4.2 05:57:27 10° NW 05:59:23 12° WNW 06:00:45 11° WNW
Cosmos 1300 Rocket 4.0 05:55:50 10° NNW 05:59:49 37° W 06:03:46 10° SSW
Cosmos 2346 Rocket 4.4 05:54:19 10° SSW 06:00:29 76° W 06:06:38 10° N
SJ 16-02 1.6 06:07:14 10° NNW 06:11:32 72° ENE 06:15:47 10° SSE
Iridium 4 Rocket 4.2 06:09:10 10° NNW 06:12:27 21° W 06:15:37 10° SW
Aureole 3 Rocket 3.5 06:08:18 10° N 06:12:44 85° W 06:18:56 10° S
Cosmos 2061 Rocket 4.3 06:09:45 10° NNW 06:15:36 45° W 06:21:26 10° SSW
SWARM C 4.5 06:12:20 10° S 06:15:37 69° W 06:18:56 10° N
SWARM A 4.2 06:12:24 10° S 06:15:43 84° W 06:19:02 10° N
CBERS-1 4.0 06:11:49 10° N 06:16:57 76° WNW 06:22:02 10° SSW
Cosmos 1378 Rocket 3.7 06:13:59 10° S 06:18:14 80° E 06:22:31 10° N
SL-16 R/B 2.8 06:14:04 10° SSW 06:19:41 67° ESE 06:25:20 10° NNE
In-Cosmos 22 Rocket 4.3 06:14:46 10° SSW 06:20:34 78° W 06:26:26 10° N
Cosmos 1190 Rocket 4.1 06:15:51 10° NNW 06:21:04 64° WSW 06:26:14 10° S
Cosmos 676 Rocket 4.2 06:16:49 10° NNW 06:22:06 80° ENE 06:27:17 10° SSE
